Terminal Aerodrome Forecast
Issued by NWS Goodland, KS

Home | Current Version | Previous Version | Text Only | Print | Product List | Glossary On
Versions: 1 2 3 4 5 6 7 8 9 10 11 12 13 14 15 16 17 18 19
000
FTUS43 KGLD 201120
TAFGLD
TAF
KGLD 201120Z 2012/2112 29010KT P6SM SKC
     FM201400 01010KT P6SM SKC=

USA.gov is the U.S. government's official web portal to all federal, state and local government web resources and services.